Location: Newark
(13.6797°N, 8.5297°E)
Time: 16:31:02
(UTC+00:00)

SR - Pass Details

Date: 25 January 2020
Orbit: 575 x 881 km, 66.7° (Epoch: 17 February)

Event Time Altitude Azimuth Distance (km) Brightness Sun altitude
Rises 20:28:03 0° 203° (SSW) 3,234 ? -44.2°
Enters shadow 20:28:40 - 204° (SSW) 2,999 ? -44.4°
Reaches altitude 10° 20:30:23 10° 205° (SSW) 2,351 - -44.8°
Maximum altitude 20:35:50 78° 291° (WNW) 855 - -46.0°
Drops below altitude 10° 20:41:39 10° 17° (NNE) 2,503 - -47.4°
Sets 20:44:12 0° 19° (NNE) 3,458 - -48.0°
